This demonstration page uses our WeatherBlox Daily Observations layout. Learn more.

38.88101, -77.10428

Hourly Observations for March 23, 2018

Temp ( °F °C ) Dew Point ( °F °C ) Humidity (%) Winds ( mph kmh ) Pressure ( in mb ) Visibility ( mi km ) Precip ( " mm )
12:52 am 00:52 Partly Cloudy 40 4.4 18 -7.8 41 41 NW 20 31 30.13 1020 10 16.0934 0 0
1:52 am 01:52 Partly Cloudy 39 3.9 19 -7.2 45 45 NW 17 28 30.14 1021 10 16.0934 0 0
2:52 am 02:52 Mostly Clear 38 3.3 19 -7.2 46 46 NNW 15 24 30.14 1021 10 16.0934 0 0
3:52 am 03:52 Clear 37 2.8 19 -7.2 48 48 NW 13 20 30.13 1020 10 16.0934 0 0
4:06 am 04:06 Partly Cloudy 37 2.8 19 -7.2 48 48 NW 13 20 30.12 1020 10 16.0934 0 0
4:52 am 04:52 Partly Cloudy 37 2.8 20 -6.7 50 50 NW 13 20 30.14 1021 10 16.0934 0 0
5:52 am 05:52 Mostly Cloudy 36 2.2 20 -6.7 52 52 NW 12 19 30.14 1021 10 16.0934 0 0
6:23 am 06:23 Mostly Clear 36 2.2 20 -6.7 52 52 NW 13 20 30.15 1021 10 16.0934 0 0
6:52 am 06:52 Mostly Clear 35 1.7 20 -6.7 54 54 NW 12 19 30.15 1021 10 16.0934 0 0
7:52 am 07:52 Mostly Sunny 36 2.2 19 -7.2 50 50 NW 15 24 30.16 1022 10 16.0934 0 0
8:52 am 08:52 Sunny 38 3.3 18 -7.8 44 44 NW 16 26 30.17 1022 10 16.0934 0 0
9:52 am 09:52 Sunny 41 5 18 -7.8 39 39 NW 18 30 30.17 1022 10 16.0934 0 0
10:52 am 10:52 Sunny 43 6.1 17 -8.3 35 35 NNW 21 33 30.16 1021 10 16.0934 0 0
11:52 am 11:52 Sunny 46 7.8 18 -7.8 32 32 NNW 24 39 30.14 1021 10 16.0934 0 0
12:52 pm 12:52 Mostly Sunny 48 8.9 19 -7.2 32 32 NNW 21 33 30.13 1020 10 16.0934 0 0
1:52 pm 13:52 Mostly Sunny 48 8.9 18 -7.8 30 30 NW 14 22 30.11 1020 10 16.0934 0 0
2:52 pm 14:52 Partly Cloudy 49 9.4 18 -7.8 29 29 NNW 15 24 30.1 1019 10 16.0934 0 0
3:52 pm 15:52 Partly Cloudy 50 10 17 -8.3 27 27 NW 16 26 30.09 1019 10 16.0934 0 0
4:52 pm 16:52 Partly Cloudy 50 10 16 -8.9 26 26 NW 18 30 30.1 1019 10 16.0934 0 0
5:52 pm 17:52 Partly Cloudy 49 9.4 16 -8.9 27 27 NW 15 24 30.1 1019 10 16.0934 0 0
6:52 pm 18:52 Mostly Sunny 46 7.8 17 -8.3 31 31 NNW 16 26 30.12 1020 10 16.0934 0 0
7:52 pm 19:52 Mostly Clear 44 6.7 16 -8.9 32 32 NNW 13 20 30.14 1021 10 16.0934 0 0
8:52 pm 20:52 Clear 43 6.1 18 -7.8 37 37 NNW 13 20 30.17 1022 10 16.0934 0 0
9:52 pm 21:52 Clear 41 5 19 -7.2 41 41 NW 15 24 30.19 1022 10 16.0934 0 0
10:52 pm 22:52 Clear 40 4.4 19 -7.2 43 43 NW 18 30 30.19 1022 10 16.0934 0 0
11:52 pm 23:52 Clear 39 3.9 20 -6.7 46 46 NW 14 22 30.2 1023 10 16.0934 0 0

Powered by AerisWeather